[[{"header":{"parameterUnit":"m.s-1","parameterCategory":1,"la1":30.2991,"la2":30.254,"lo1":-89.0895,"lo2":-89.0444,"dy":0.0017,"dx":0.0017,"nx":28,"ny":28,"refTime":"2025-12-29T09:00:00:Z","depth":0,"parameterNumber":2,"parameterNumberName":"U-component_of_WINDS"},"data":[0,0,0,0,0,0,0,0,0,0,0,0,0,0,0,0,0,0,0,0,0,0,0,0,0,0,0,0,0,0,0,0,0,0,0,0,0,0,0,0,0,0,0,0,0,0,0,0,0,0,0,0,0,0,0,0,0,0,1.3743,1.3743,0,1.3727,1.3727,1.3727,1.3716,1.3716,1.3716,1.3716,1.3697,1.3697,1.3696,0,0,0,0,0,0,0,0,0,0,0,0,0,1.3763,1.3762,1.3743,1.3743,1.3743,1.3727,1.3727,1.3727,1.3716,1.3716,1.3716,1.3715,1.3697,1.3697,1.3696,0,0,0,0,0,0,0,0,0,0,0,0,0,1.3751,1.3762,1.3743,1.3735,1.3735,1.3727,1.3727,1.3727,1.3716,1.3716,1.3716,1.3715,1.3697,1.3697,1.3696,1.3695,0,0,1.3694,1.3694,0,0,0,0,0,0,0,0,1.3752,1.375,1.3737,1.3736,1.3735,1.3723,1.3727,1.3716,1.3716,1.3723,1.3716,1.3715,1.3706,1.3704,1.3702,1.3694,1.3693,1.3694,1.3694,1.3693,1.3693,0,0,0,0,0,0,0,1.3753,1.3751,1.3737,1.3737,1.3736,1.3732,1.3731,1.3725,1.3715,1.3722,1.3721,1.372,1.3705,1.3702,1.3701,1.3693,1.3694,1.3693,1.3693,1.3693,1.3684,1.3684,0,0,0,0,0,0,1.3755,1.3752,1.3737,1.3736,1.3743,1.3732,1.373,1.3727,1.3715,1.3713,1.372,1.3719,1.3703,1.3702,1.37,1.3698,1.3693,1.3693,1.3692,1.3684,1.3684,1.3684,0,0,0,0,0,0,1.3755,1.3754,1.3738,1.3744,1.3742,1.3732,1.3729,1.3727,1.3724,1.3713,1.3711,1.3719,1.3703,1.3701,1.3696,1.3697,1.3692,1.3692,1.3684,1.3684,1.3684,1.3694,0,0,0,0,0,0,1.3756,1.3754,1.3753,1.3744,1.3741,1.3735,1.3729,1.3727,1.3723,1.3722,1.3712,1.371,1.3703,1.3698,1.3696,1.3697,1.3691,1.3683,1.3684,1.3684,1.3693,1.3695,1.3695,0,0,0,0,0,1.3757,1.3756,1.3753,1.3752,1.3741,1.3735,1.3733,1.3726,1.3723,1.3723,1.3716,1.371,1.3698,1.3697,1.3695,1.3696,1.3683,1.3684,1.3684,1.3693,1.3694,1.3695,0,0,0,0,0,0,1.3765,1.3755,1.3752,1.3748,1.3743,1.3733,1.3732,1.3727,1.3722,1.3721,1.3711,1.3709,1.3705,1.37,1.3699,1.3694,1.369,1.369,1.3698,1.3699,1.37,1.3701,1.3691,0,0,0,0,0,1.3766,1.3763,1.3754,1.3752,1.3749,1.3741,1.3738,1.3733,1.3727,1.3724,1.3717,1.371,1.3705,1.3702,1.3696,1.3693,1.3691,1.3693,1.3694,1.3694,1.3694,1.3693,1.3694,1.3685,1.3685,1.3685,0,0,1.3769,1.3763,1.3761,1.3754,1.3749,1.3745,1.3739,1.3735,1.3732,1.3723,1.3719,1.3714,1.3705,1.3702,1.37,1.3697,1.3696,1.3695,1.3696,1.3695,1.3693,1.3694,1.3695,1.3685,1.3685,1.3685,0,0,1.3772,1.3768,1.3766,1.3761,1.3754,1.3749,1.3749,1.374,1.3737,1.3732,1.3726,1.3722,1.3713,1.3708,1.3704,1.3708,1.3702,1.3706,1.371,1.3709,1.371,1.371,1.3712,1.3712,1.3706,1.3706,1.3706,0,1.3776,1.3771,1.3765,1.3762,1.3759,1.3752,1.375,1.3745,1.3737,1.3735,1.3732,1.3722,1.3716,1.3711,1.3712,1.3709,1.3709,1.3707,1.3711,1.3711,1.3711,1.3712,1.3713,1.3707,1.3706,1.3706,1.3706,0,1.3777,1.3773,1.3772,1.3766,1.3762,1.376,1.3753,1.375,1.3746,1.3741,1.3737,1.373,1.3724,1.3722,1.3718,1.3717,1.3716,1.3712,1.3708,1.3713,1.3714,1.3714,1.3707,1.3707,1.3707,1.3707,0,0,1.3783,1.3774,1.3774,1.3771,1.3764,1.3761,1.3758,1.3753,1.3751,1.3746,1.3743,1.3737,1.3734,1.3729,1.3724,1.3723,1.3727,1.372,1.3719,1.3721,1.3726,1.3729,1.3729,1.3724,1.3724,1.3724,1.3727,0,1.3785,1.378,1.3775,1.3772,1.3769,1.3764,1.3761,1.3757,1.3752,1.3749,1.3744,1.374,1.3736,1.3733,1.3732,1.3727,1.3728,1.3726,1.3721,1.3721,1.3722,1.373,1.3732,1.3735,1.3727,1.3727,1.3727,0,1.3786,1.3782,1.378,1.3774,1.3772,1.377,1.3765,1.3762,1.3757,1.3754,1.375,1.3746,1.3742,1.3739,1.3735,1.3734,1.3732,1.3729,1.3729,1.3727,1.3724,1.3728,1.3736,1.3736,1.3728,1.3728,1.3728,0,1.3791,1.3785,1.3783,1.3781,1.3774,1.3773,1.377,1.3764,1.3762,1.3758,1.3756,1.3751,1.3748,1.3745,1.3739,1.3737,1.3735,1.3731,1.3732,1.3733,1.3731,1.3731,1.3739,1.3731,1.3731,1.3731,1.3731,0,1.3794,1.3792,1.3785,1.3784,1.3782,1.3777,1.3775,1.3771,1.3767,1.3765,1.3759,1.3757,1.375,1.3746,1.3742,1.3739,1.3738,1.3735,1.3734,1.3735,1.3736,1.3733,1.3732,1.3731,1.3731,1.3731,1.3731,0,1.3798,1.3794,1.3791,1.3785,1.3784,1.3783,1.3778,1.3776,1.3772,1.3769,1.3768,1.3762,1.3758,1.3752,1.3746,1.3743,1.3741,1.3739,1.3743,1.3742,1.3744,1.3744,1.3749,1.3749,1.3742,1.3742,1.3742,0,1.38,1.3799,1.3793,1.3792,1.3789,1.3786,1.3784,1.3779,1.3777,1.3772,1.3771,1.3767,1.3763,1.3758,1.3752,1.3748,1.3746,1.3748,1.3745,1.3747,1.3746,1.3746,1.3745,1.3748,1.3749,1.3749,1.3749,0,1.3803,1.3801,1.3798,1.3795,1.3793,1.379,1.3787,1.3786,1.378,1.3778,1.3775,1.3772,1.3767,1.3763,1.3759,1.3755,1.3751,1.375,1.375,1.3751,1.3753,1.3752,1.3745,1.375,1.375,1.3749,1.3749,1.3749,1.3806,1.3805,1.3801,1.3799,1.3796,1.3793,1.3792,1.3789,1.3786,1.3782,1.3779,1.3776,1.3772,1.3765,1.3762,1.3759,1.3757,1.3757,1.3757,1.3757,1.3758,1.3755,1.3759,1.3759,1.3759,1.3759,1.3758,0,1.3809,1.3807,1.3804,1.3801,1.3799,1.3796,1.3793,1.3791,1.3789,1.3785,1.3783,1.3779,1.3776,1.3771,1.3767,1.3766,1.3764,1.3765,1.3765,1.3764,1.376,1.376,1.3767,1.3767,1.3767,1.3767,1.3767,1.3767,1.381,1.3808,1.3806,1.3803,1.3801,1.3798,1.3797,1.3794,1.3792,1.3789,1.3786,1.3783,1.3779,1.3776,1.3773,1.3771,1.377,1.3772,1.377,1.3765,1.3764,1.3764,1.3764,1.3771,1.3771,1.3774,1.3774,1.3774]},{"header":{"parameterUnit":"m.s-1","parameterCategory":1,"la1":30.2991,"la2":30.254,"lo1":-89.0895,"lo2":-89.0444,"dy":0.0017,"dx":0.0017,"nx":28,"ny":28,"refTime":"2025-12-29T09:00:00:Z","depth":0,"parameterNumber":3,"parameterNumberName":"V-component_of_WINDS"},"data":[0,0,0,0,0,0,0,0,0,0,0,0,0,0,0,0,0,0,0,0,0,0,0,0,0,0,0,0,0,0,0,0,0,0,0,0,0,0,0,0,0,0,0,0,0,0,0,0,0,0,0,0,0,0,0,0,0,0,-7.3206,-7.3208,0,-7.3357,-7.3358,-7.336,-7.3311,-7.3308,-7.3305,-7.3302,-7.345,-7.3456,-7.3463,0,0,0,0,0,0,0,0,0,0,0,0,0,-7.2871,-7.2878,-7.3206,-7.3208,-7.321,-7.3357,-7.3359,-7.3361,-7.3312,-7.3308,-7.3304,-7.33,-7.3447,-7.3455,-7.3464,0,0,0,0,0,0,0,0,0,0,0,0,0,-7.3019,-7.288,-7.3206,-7.3203,-7.3205,-7.3356,-7.3359,-7.3361,-7.3312,-7.3308,-7.3303,-7.3298,-7.3445,-7.3455,-7.3465,-7.3626,0,0,-7.3497,-7.3501,0,0,0,0,0,0,0,0,-7.301,-7.3031,-7.3202,-7.3204,-7.3205,-7.331,-7.3295,-7.345,-7.3314,-7.3271,-7.3301,-7.3296,-7.3407,-7.342,-7.3459,-7.3633,-7.3639,-7.3498,-7.3504,-7.3508,-7.3511,0,0,0,0,0,0,0,-7.3,-7.3024,-7.3265,-7.3204,-7.3207,-7.3193,-7.3209,-7.3324,-7.3364,-7.3275,-7.3271,-7.329,-7.3407,-7.3449,-7.3462,-7.3642,-7.3497,-7.3507,-7.3513,-7.3517,-7.3957,-7.3962,0,0,0,0,0,0,-7.299,-7.3016,-7.3261,-7.327,-7.3094,-7.3203,-7.322,-7.3281,-7.3363,-7.3371,-7.3294,-7.3287,-7.3433,-7.345,-7.3467,-7.3662,-7.3508,-7.3518,-7.3524,-7.3952,-7.3958,-7.3964,0,0,0,0,0,0,-7.2983,-7.3012,-7.3255,-7.3142,-7.3172,-7.3214,-7.3283,-7.3287,-7.3329,-7.3378,-7.3384,-7.333,-7.343,-7.3452,-7.3588,-7.3666,-7.3523,-7.3532,-7.3945,-7.3954,-7.3961,-7.4053,0,0,0,0,0,0,-7.2973,-7.301,-7.3072,-7.3144,-7.3178,-7.3375,-7.3288,-7.3293,-7.3348,-7.334,-7.3413,-7.342,-7.3428,-7.3572,-7.3598,-7.3678,-7.354,-7.3938,-7.3949,-7.3959,-7.4044,-7.4064,-7.4081,0,0,0,0,0,-7.2961,-7.3091,-7.3076,-7.3106,-7.3258,-7.338,-7.3399,-7.3407,-7.3354,-7.3417,-7.3449,-7.3418,-7.3654,-7.3587,-7.3615,-7.37,-7.3933,-7.3946,-7.3958,-7.4035,-7.406,-7.4081,0,0,0,0,0,0,-7.3024,-7.31,-7.3084,-7.3241,-7.3305,-7.3371,-7.345,-7.3432,-7.351,-7.35,-7.3504,-7.3521,-7.3661,-7.3693,-7.3618,-7.3861,-7.3785,-7.3804,-7.3835,-7.3858,-7.3877,-7.3866,-7.3549,0,0,0,0,0,-7.3057,-7.3151,-7.3211,-7.3343,-7.3377,-7.3408,-7.3461,-7.3463,-7.3527,-7.3553,-7.3595,-7.3657,-7.3746,-7.3803,-7.3887,-7.4048,-7.4063,-7.412,-7.4139,-7.4154,-7.417,-7.4258,-7.4285,-7.4004,-7.4004,-7.4004,0,0,-7.3124,-7.3177,-7.3236,-7.3358,-7.3407,-7.3503,-7.3431,-7.3535,-7.3607,-7.3568,-7.37,-7.3733,-7.3803,-7.3952,-7.402,-7.3984,-7.4251,-7.4169,-7.4181,-7.4189,-7.4274,-7.43,-7.4324,-7.4013,-7.4011,-7.401,0,0,-7.3297,-7.3346,-7.3463,-7.3515,-7.3591,-7.3612,-7.364,-7.371,-7.3731,-7.3864,-7.3838,-7.3921,-7.4073,-7.4125,-7.4171,-7.4365,-7.434,-7.4392,-7.449,-7.4576,-7.4598,-7.4618,-7.4688,-7.4713,-7.4408,-7.4408,-7.4408,0,-7.337,-7.3516,-7.3524,-7.3633,-7.3687,-7.3659,-7.3777,-7.3826,-7.3925,-7.3963,-7.3921,-7.4113,-7.4158,-7.4319,-7.4367,-7.4405,-7.4437,-7.4384,-7.4595,-7.4615,-7.4633,-7.47,-7.4726,-7.4414,-7.4413,-7.4412,-7.4412,0,-7.3604,-7.3705,-7.379,-7.389,-7.3953,-7.4065,-7.409,-7.4153,-7.4149,-7.4173,-7.4309,-7.4362,-7.4457,-7.4495,-7.4491,-7.4657,-7.4633,-7.4593,-7.4518,-7.4666,-7.4729,-7.4754,-7.4422,-7.442,-7.4418,-7.4417,0,0,-7.3819,-7.3924,-7.3955,-7.4001,-7.4084,-7.4162,-7.4273,-7.4368,-7.4423,-7.4492,-7.4585,-7.4715,-7.468,-7.4732,-7.4733,-7.4809,-7.4961,-7.476,-7.4761,-7.4796,-7.5148,-7.5178,-7.5208,-7.4944,-7.4949,-7.4953,-7.5143,0,-7.4,-7.4197,-7.4209,-7.4387,-7.4481,-7.4457,-7.4553,-7.4614,-7.4641,-7.4723,-7.475,-7.4844,-7.4789,-7.4821,-7.4895,-7.4927,-7.5031,-7.4913,-7.503,-7.5034,-7.5015,-7.5241,-7.5273,-7.5449,-7.5167,-7.5171,-7.5174,0,-7.4236,-7.4317,-7.4505,-7.4577,-7.4617,-7.4704,-7.4793,-7.4873,-7.4941,-7.4954,-7.5015,-7.5005,-7.5118,-7.5039,-7.5193,-7.5113,-7.5161,-7.5184,-7.5191,-7.5203,-7.5114,-7.526,-7.5505,-7.5532,-7.5213,-7.521,-7.5207,0,-7.4377,-7.4531,-7.4665,-7.4704,-7.4791,-7.4853,-7.4891,-7.4955,-7.5012,-7.509,-7.5127,-7.5215,-7.5263,-7.5331,-7.5346,-7.5287,-7.5501,-7.5423,-7.5515,-7.5515,-7.5562,-7.5559,-7.582,-7.5592,-7.5591,-7.5591,-7.559,0,-7.4577,-7.4694,-7.4729,-7.4812,-7.4941,-7.4953,-7.508,-7.5114,-7.5172,-7.5259,-7.5242,-7.5324,-7.5338,-7.5423,-7.5435,-7.5562,-7.5583,-7.5597,-7.5599,-7.5599,-7.5598,-7.5632,-7.562,-7.5598,-7.5596,-7.5595,-7.5594,0,-7.4756,-7.4784,-7.4929,-7.5,-7.5021,-7.5113,-7.5173,-7.5252,-7.5276,-7.5387,-7.5414,-7.5452,-7.5552,-7.5573,-7.5689,-7.5697,-7.5849,-7.5838,-7.5827,-7.5826,-7.5918,-7.591,-7.621,-7.6251,-7.5995,-7.5998,-7.6,0,-7.4883,-7.4973,-7.5055,-7.5113,-7.5156,-7.525,-7.5309,-7.5323,-7.5385,-7.5471,-7.5539,-7.5637,-7.5716,-7.5876,-7.5913,-7.6002,-7.5994,-7.6093,-7.6007,-7.6005,-7.5997,-7.5992,-7.6001,-7.611,-7.6113,-7.6115,-7.6117,0,-7.5105,-7.5116,-7.5203,-7.5296,-7.5368,-7.5441,-7.551,-7.5559,-7.5582,-7.5653,-7.5756,-7.5817,-7.5938,-7.6036,-7.6126,-7.6163,-7.6145,-7.6144,-7.617,-7.6172,-7.6162,-7.617,-7.5873,-7.6137,-7.6135,-7.6133,-7.6132,-7.6131,-7.5263,-7.5342,-7.5413,-7.5511,-7.5566,-7.5632,-7.571,-7.5745,-7.5832,-7.5934,-7.5936,-7.6048,-7.6115,-7.6234,-7.6278,-7.6365,-7.6334,-7.6371,-7.6381,-7.6391,-7.64,-7.6148,-7.6381,-7.638,-7.638,-7.6379,-7.6379,0,-7.5486,-7.5531,-7.5621,-7.5721,-7.5798,-7.5776,-7.5852,-7.5917,-7.6017,-7.6082,-7.6161,-7.628,-7.6375,-7.642,-7.6514,-7.6575,-7.6568,-7.6599,-7.6595,-7.6604,-7.6422,-7.639,-7.6602,-7.6602,-7.6602,-7.6602,-7.6602,-7.6602,-7.5611,-7.5745,-7.5764,-7.5924,-7.5967,-7.608,-7.6125,-7.6186,-7.6238,-7.6372,-7.6452,-7.6482,-7.6539,-7.6637,-7.6722,-7.6733,-7.6769,-7.6804,-7.681,-7.6639,-7.6616,-7.6595,-7.6565,-7.6811,-7.6811,-7.6986,-7.6987,-7.6988]}]]